BUCHANAN DAM (BUC)

Elevation: 450' · CHOWCHILLA R basin · Operator: US Army Corps of Engineers

Provisional data, subject to change.
Query executed Friday at 22:01:20   clock

Select a sensor type for a plot of data.
Note: Reservoir Flows are daily averages.

Earlier

Date RES ELE    STORAGE    RES CHG    TOC STO    OUTFLOW    INFLOW    PPT INC    TEMP MN    TEMP MX   
 FEET   AF   AF   AF   CFS   CFS   INCHES   DEG F   DEG F  
06/26/2014 471.54 13032 -17 150000 0 -4 -- 18 30
06/27/2014 471.50 13010 -22 150000 0 -6 -- 15 34
06/28/2014 471.48 12999 -11 150000 0 -0 -- 17 35
06/29/2014 471.45 12982 -17 150000 0 -3 -- 16 38
06/30/2014 471.44 12977 -5 150000 0 4 -- 20 41
07/01/2014 471.41 12960 -17 150000 0 -2 -- 22 41
07/02/2014 471.40 12954 -6 150000 0 3 -- 20 40
07/03/2014 471.38 12943 -11 150000 0 0 -- 19 40
07/04/2014 471.36 12932 -11 150000 0 1 -- 20 41
07/05/2014 471.32 12910 -22 150000 0 -5 -- 21 40
07/06/2014 471.31 12905 -5 150000 0 3 -- 21 38
07/07/2014 471.30 12899 -6 150000 0 -0 -- 24 35
07/08/2014 471.27 12882 -17 150000 0 -2 -- 21 42
07/09/2014 471.25 12871 -11 150000 0 1 -- 21 40
07/10/2014 471.23 12860 -11 150000 0 0 -- 20 37
07/11/2014 471.20 12844 -16 150000 0 -3 -- 19 34
07/12/2014 471.17 12827 -17 150000 0 -3 -- 17 36
07/13/2014 471.15 12816 -16 150000 0 0 -- 20 39
07/14/2014 471.14 12811 0 150000 0 2 -- 24 39
07/15/2014 471.12 12800 -11 150000 -- -- -- -- --
07/16/2014 471.09 12783 -17 150000 0 -3 -- 23 35
07/17/2014 471.06 12766 -17 150000 0 -3 -- 18 34
07/18/2014 471.03 12750 -16 150000 0 -3 -- 18 34
07/19/2014 471.01 12739 -11 150000 0 -0 -- 19 36
07/20/2014 470.99 12728 -11 150000 0 0 -- 23 36
07/21/2014 470.96 12711 -17 150000 0 -3 -- 18 35
07/22/2014 470.94 12701 -10 150000 0 0 -- 20 36
07/23/2014 470.90 12679 -22 150000 0 -6 -- 17 33
07/24/2014 470.87 12662 -17 150000 0 -4 -- -18 36
07/25/2014 -- -- -- -- -- -- -- -- --

Later | Latest

Warning! This data is preliminary and subject to revision.

Download Data Now Download Data Now | Show BUC Map | Plot BUC Data | 1 Month BUC Data | Real-Time BUC Data | BUC Info